Weather History for Colorado Springs, CO

Change the Weather History Date:

Friday, April 5, 2013

  Actual Average Record
Temperature  
Mean Temperature 56 °F 44 °F  
Max Temperature 74 °F 57 °F 77 °F (1991)
Min Temperature 38 °F 30 °F 11 °F (1933)
Degree Days  
Heating Degree Days 9 21  
Month to date heating degree days 103 109  
Since 1 July heating degree days 5259 5477  
Cooling Degree Days 0 0  
Month to date cooling degree days 0 0  
Year to date cooling degree days 0 0  
Growing Degree Days 5 (Base 50)    
Moisture  
Dew Point 19 °F    
Average Humidity 32    
Maximum Humidity 54    
Minimum Humidity 9    
Precipitation  
Precipitation 0.00 in 0.04 in 1.64 in (1900)
Month to date precipitation 0.01 0.17  
Year to date precipitation 1.27 1.83  
Snow  
Snow 0.00 in 0.20 in 18.00 in (1900)
Month to date snowfall T 1.0  
Since 1 July snowfall 24.2 33.1  
Snow Depth 0.00 in    
Sea Level Pressure  
Sea Level Pressure 29.77 in    
Wind  
Wind Speed 11 mph (NNW)    
Max Wind Speed 36 mph    
Max Gust Speed 46 mph    
Visibility 10 miles    
Events      
T = Trace of Precipitation, MM = Missing Value Source: NWS Daily Summary

Daily Weather History Graph

Daily Weather History Graph

Search for Another Location

Airport:

Trip Planner

Search our weather history database for the weather conditions in past years. The results will help you decide how hot, cold, wet, or windy it might be!

Date:

Astronomy

Apr. 05, 2013 Rise Set
Actual Time 6:36 AM MDT 7:26 PM MDT
Civil Twilight 6:09 AM MDT 7:53 PM MDT
Nautical Twilight 5:37 AM MDT 8:25 PM MDT
Astronomical Twilight 5:04 AM MDT 8:58 PM MDT
Moon 3:42 AM MDT (4/5) 2:55 PM MDT (4/5)
Length of Visible Light 13h 43m
Length of Day
12h 49m
Waning Crescent, 23% of the Moon is Illuminated
Apr 5
Waning Crescent
Apr 10
New
Apr 18
First Quarter
Apr 25
Full
May 2
Last Quarter

Hourly Weather History & Observations

Time (MDT) Temp. Windchill Dew Point Humidity Pressure Visibility Wind Dir Wind Speed Gust Speed Precip Events Conditions
12:54 AM 42.1 °F 40.2 °F 19.9 °F 41% 29.97 in 10.0 mi NNE 3.5 mph - N/A   Clear
1:54 AM 43.0 °F 39.5 °F 21.0 °F 42% 29.94 in 10.0 mi ENE 5.8 mph - N/A   Clear
2:54 AM 39.9 °F 35.8 °F 21.9 °F 49% 29.92 in 10.0 mi NNE 5.8 mph - N/A   Clear
3:54 AM 41.0 °F 37.1 °F 23.0 °F 49% 29.90 in 10.0 mi NNE 5.8 mph - N/A   Clear
4:54 AM 39.9 °F 37.8 °F 24.1 °F 53% 29.89 in 10.0 mi NE 3.5 mph - N/A   Clear
5:54 AM 44.1 °F 42.5 °F 24.1 °F 45% 29.87 in 10.0 mi North 3.5 mph - N/A   Clear
6:54 AM 45.0 °F 41.8 °F 23.0 °F 42% 29.87 in 10.0 mi North 5.8 mph - N/A   Partly Cloudy
7:54 AM 44.1 °F - 24.1 °F 45% 29.91 in 10.0 mi Calm Calm - N/A   Partly Cloudy
8:54 AM 48.9 °F - 23.0 °F 36% 29.90 in 10.0 mi North 3.5 mph - N/A   Partly Cloudy
9:54 AM 57.0 °F - 19.9 °F 24% 29.84 in 10.0 mi Calm Calm - N/A   Partly Cloudy
10:54 AM 59.0 °F - 17.1 °F 20% 29.82 in 10.0 mi ESE 3.5 mph - N/A   Partly Cloudy
11:54 AM 66.0 °F - 15.1 °F 14% 29.75 in 10.0 mi Variable 5.8 mph - N/A   Partly Cloudy
12:54 PM 68.0 °F - 15.1 °F 13% 29.73 in 10.0 mi SSE 18.4 mph 24.2 mph N/A   Partly Cloudy
1:41 PM 69.8 °F - 10.4 °F 10% 29.84 in 10.0 mi SSE 20.7 mph 27.6 mph N/A   Scattered Clouds
1:54 PM 70.0 °F - 10.0 °F 10% 29.67 in 10.0 mi SSE 17.3 mph 28.8 mph N/A   Scattered Clouds
2:18 PM 71.6 °F - 10.4 °F 9% 29.81 in 10.0 mi West 23.0 mph 28.8 mph N/A   Scattered Clouds
2:54 PM 71.1 °F - 10.9 °F 10% 29.65 in 10.0 mi West 13.8 mph 29.9 mph N/A   Mostly Cloudy
3:54 PM 69.1 °F - 10.0 °F 10% 29.64 in 10.0 mi WSW 10.4 mph - N/A   Mostly Cloudy
4:54 PM 70.0 °F - 12.9 °F 11% 29.62 in 10.0 mi WSW 19.6 mph 28.8 mph N/A   Mostly Cloudy
5:54 PM 68.0 °F - 17.1 °F 14% 29.61 in 10.0 mi NW 13.8 mph 23.0 mph N/A   Mostly Cloudy
6:54 PM 66.0 °F - 17.1 °F 15% 29.62 in 10.0 mi West 20.7 mph 31.1 mph N/A   Scattered Clouds
7:54 PM 63.0 °F - 18.0 °F 18% 29.66 in 10.0 mi NW 13.8 mph 25.3 mph N/A   Scattered Clouds
8:54 PM 61.0 °F - 19.9 °F 21% 29.66 in 10.0 mi NW 17.3 mph 21.9 mph N/A   Partly Cloudy
9:54 PM 59.0 °F - 23.0 °F 25% 29.69 in 10.0 mi NW 18.4 mph 23.0 mph N/A   Partly Cloudy
10:54 PM 55.0 °F - 27.0 °F 34% 29.68 in 10.0 mi NNW 15.0 mph 26.5 mph N/A   Partly Cloudy
11:54 PM 55.9 °F - 26.1 °F 32% 29.68 in 10.0 mi NW 25.3 mph 34.5 mph N/A   Partly Cloudy